Previsão horária em Brusbeno

Hoje, 30 Setembro, Quarta-feira

Tempo Temperatura Precipitação Vento Pressão Humidade
00:00 +15°C° 0 mm 1 m/s 765 mmHg 65%
01:00 +15°C° 0 mm 1 m/s 765 mmHg 66%
02:00 +14°C° 0 mm 1 m/s 765 mmHg 67%
03:00 +14°C° 0 mm 1 m/s 765 mmHg 68%
04:00 +14°C° 0 mm 1 m/s 764 mmHg 68%
05:00 +15°C° 0 mm 1 m/s 764 mmHg 65%
06:00 +16°C° 0 mm 1 m/s 764 mmHg 62%
07:00 +16°C° 0 mm 1 m/s 764 mmHg 59%
08:00 +18°C° 0 mm 2 m/s 764 mmHg 53%
09:00 +20°C° 0 mm 2 m/s 764 mmHg 47%
10:00 +22°C° 0 mm 3 m/s 764 mmHg 41%
11:00 +24°C° 0 mm 3 m/s 764 mmHg 39%
12:00 +25°C° 0 mm 3 m/s 763 mmHg 37%
13:00 +25°C° 0 mm 3 m/s 762 mmHg 36%
14:00 +25°C° 0 mm 3 m/s 762 mmHg 37%
15:00 +24°C° 0 mm 3 m/s 762 mmHg 39%
16:00 +23°C° 0 mm 4 m/s 762 mmHg 41%
17:00 +22°C° 0 mm 3 m/s 762 mmHg 48%
18:00 +20°C° 0 mm 3 m/s 762 mmHg 55%
19:00 +19°C° 0 mm 3 m/s 762 mmHg 62%
20:00 +19°C° 0 mm 3 m/s 763 mmHg 67%
21:00 +18°C° 0 mm 2 m/s 763 mmHg 72%
22:00 +17°C° 0 mm 2 m/s 763 mmHg 77%
23:00 +17°C° 0 mm 2 m/s 763 mmHg 79%

Amanhã, 1 Outubro, Quinta-feira

Tempo Temperatura Precipitação Vento Pressão Humidade
00:00 +16°C° 0 mm 2 m/s 763 mmHg 80%
01:00 +16°C° 0 mm 1 m/s 762 mmHg 82%
02:00 +15°C° 0 mm 1 m/s 762 mmHg 82%
03:00 +15°C° 0 mm 1 m/s 762 mmHg 82%
04:00 +15°C° 0 mm 1 m/s 762 mmHg 82%
05:00 +16°C° 0 mm 1 m/s 763 mmHg 78%
06:00 +18°C° 0 mm 1 m/s 763 mmHg 74%
07:00 +19°C° 0 mm 1 m/s 763 mmHg 70%
08:00 +21°C° 0 mm 1 m/s 763 mmHg 62%
09:00 +23°C° 0 mm 2 m/s 763 mmHg 55%
10:00 +26°C° 0 mm 2 m/s 763 mmHg 47%
11:00 +26°C° 0 mm 3 m/s 763 mmHg 47%
12:00 +27°C° 0 mm 3 m/s 762 mmHg 47%
13:00 +27°C° 0 mm 4 m/s 762 mmHg 47%
14:00 +26°C° 0.7 mm 4 m/s 761 mmHg 54%
15:00 +23°C° 0.7 mm 4 m/s 761 mmHg 61%
16:00 +22°C° 0.7 mm 4 m/s 761 mmHg 69%
17:00 +21°C° 0 mm 4 m/s 762 mmHg 72%
18:00 +20°C° 0 mm 3 m/s 762 mmHg 76%
19:00 +19°C° 0 mm 3 m/s 763 mmHg 80%
20:00 +19°C° 0 mm 3 m/s 763 mmHg 81%
21:00 +18°C° 0 mm 3 m/s 764 mmHg 83%
22:00 +18°C° 0 mm 2 m/s 764 mmHg 84%
23:00 +18°C° 0 mm 2 m/s 764 mmHg 85%

Depois de amanhã, 2 Outubro, Sexta-feira

Tempo Temperatura Precipitação Vento Pressão Humidade
00:00 +17°C° 0 mm 2 m/s 764 mmHg 86%
01:00 +18°C° 0 mm 1 m/s 764 mmHg 87%
02:00 +18°C° 0 mm 1 m/s 764 mmHg 88%
03:00 +16°C° 0 mm 1 m/s 764 mmHg 88%
04:00 +16°C° 0 mm 1 m/s 764 mmHg 89%
05:00 +18°C° 0 mm 1 m/s 765 mmHg 86%
06:00 +19°C° 0 mm 1 m/s 765 mmHg 83%
07:00 +20°C° 0 mm 1 m/s 766 mmHg 79%
08:00 +23°C° 0 mm 1 m/s 766 mmHg 68%
09:00 +26°C° 0 mm 1 m/s 766 mmHg 57%
10:00 +29°C° 0 mm 1 m/s 766 mmHg 46%
11:00 +29°C° 0 mm 1 m/s 766 mmHg 43%
12:00 +30°C° 0 mm 2 m/s 765 mmHg 40%
13:00 +30°C° 0 mm 3 m/s 765 mmHg 37%
14:00 +29°C° 0 mm 3 m/s 765 mmHg 41%
15:00 +28°C° 0 mm 4 m/s 765 mmHg 46%
16:00 +27°C° 0 mm 4 m/s 765 mmHg 51%
17:00 +25°C° 0 mm 3 m/s 765 mmHg 60%
18:00 +24°C° 0 mm 3 m/s 766 mmHg 69%
19:00 +21°C° 0 mm 3 m/s 767 mmHg 78%
20:00 +20°C° 0 mm 2 m/s 767 mmHg 80%
21:00 +20°C° 0 mm 2 m/s 768 mmHg 82%
22:00 +20°C° 0 mm 2 m/s 768 mmHg 84%
23:00 +20°C° 0 mm 2 m/s 768 mmHg 83%

3 Outubro, Sábado

Tempo Temperatura Precipitação Vento Pressão Humidade
00:00 +20°C° 0 mm 2 m/s 768 mmHg 82%
01:00 +20°C° 0 mm 2 m/s 768 mmHg 82%
02:00 +20°C° 0 mm 1 m/s 768 mmHg 82%
03:00 +20°C° 0 mm 1 m/s 768 mmHg 83%
04:00 +20°C° 0 mm 1 m/s 768 mmHg 84%
05:00 +20°C° 0 mm 1 m/s 768 mmHg 79%
06:00 +20°C° 0 mm 2 m/s 768 mmHg 75%
07:00 +21°C° 0 mm 2 m/s 769 mmHg 70%
08:00 +24°C° 0 mm 3 m/s 769 mmHg 62%
09:00 +25°C° 0 mm 3 m/s 769 mmHg 54%
10:00 +27°C° 0 mm 4 m/s 768 mmHg 45%
11:00 +27°C° 0 mm 4 m/s 768 mmHg 44%
12:00 +27°C° 0 mm 4 m/s 768 mmHg 43%
13:00 +28°C° 0 mm 4 m/s 767 mmHg 43%
14:00 +27°C° 0 mm 4 m/s 767 mmHg 46%
15:00 +26°C° 0 mm 4 m/s 767 mmHg 49%
16:00 +26°C° 0 mm 4 m/s 767 mmHg 53%
17:00 +23°C° 0 mm 4 m/s 767 mmHg 61%
18:00 +22°C° 0 mm 3 m/s 767 mmHg 69%
19:00 +20°C° 0 mm 3 m/s 768 mmHg 77%
20:00 +20°C° 0 mm 3 m/s 768 mmHg 79%
21:00 +20°C° 0 mm 2 m/s 768 mmHg 80%
22:00 +19°C° 0 mm 2 m/s 768 mmHg 81%
23:00 +19°C° 0 mm 2 m/s 768 mmHg 82%

4 Outubro, Domingo

Tempo Temperatura Precipitação Vento Pressão Humidade
00:00 +18°C° 0 mm 2 m/s 767 mmHg 83%
01:00 +19°C° 0 mm 1 m/s 767 mmHg 83%
02:00 +18°C° 0.1 mm 2 m/s 767 mmHg 84%
03:00 +18°C° 0.1 mm 2 m/s 767 mmHg 85%
04:00 +18°C° 0.1 mm 2 m/s 767 mmHg 85%
05:00 +19°C° 0 mm 2 m/s 767 mmHg 81%
06:00 +20°C° 0 mm 3 m/s 767 mmHg 76%
07:00 +21°C° 0 mm 3 m/s 768 mmHg 72%
08:00 +22°C° 0 mm 3 m/s 768 mmHg 64%
09:00 +23°C° 0 mm 4 m/s 767 mmHg 57%
10:00 +25°C° 0 mm 4 m/s 767 mmHg 50%
11:00 +26°C° 0 mm 4 m/s 767 mmHg 48%
12:00 +26°C° 0 mm 4 m/s 766 mmHg 47%
13:00 +27°C° 0 mm 4 m/s 765 mmHg 45%
14:00 +26°C° 0 mm 4 m/s 765 mmHg 47%
15:00 +26°C° 0 mm 4 m/s 765 mmHg 49%
16:00 +25°C° 0 mm 4 m/s 765 mmHg 51%
17:00 +24°C° 0 mm 3 m/s 765 mmHg 60%
18:00 +21°C° 0 mm 3 m/s 765 mmHg 68%
19:00 +20°C° 0 mm 3 m/s 766 mmHg 77%
20:00 +20°C° 0 mm 3 m/s 766 mmHg 78%
21:00 +19°C° 0 mm 2 m/s 766 mmHg 80%
22:00 +19°C° 0 mm 2 m/s 766 mmHg 82%
23:00 +18°C° 0 mm 2 m/s 766 mmHg 82%

5 Outubro, Segunda-feira

Tempo Temperatura Precipitação Vento Pressão Humidade
00:00 +19°C° 0 mm 1 m/s 765 mmHg 82%
01:00 +19°C° 0 mm 1 m/s 765 mmHg 82%
02:00 +19°C° 0 mm 1 m/s 765 mmHg 83%
03:00 +18°C° 0 mm 1 m/s 765 mmHg 84%
04:00 +18°C° 0 mm 1 m/s 765 mmHg 85%
05:00 +19°C° 0.1 mm 1 m/s 765 mmHg 82%
06:00 +19°C° 0.1 mm 1 m/s 765 mmHg 79%
07:00 +20°C° 0.1 mm 1 m/s 766 mmHg 76%
08:00 +22°C° 0 mm 1 m/s 766 mmHg 67%
09:00 +25°C° 0 mm 1 m/s 765 mmHg 59%
10:00 +27°C° 0 mm 1 m/s 765 mmHg 50%
11:00 +27°C° 0 mm 2 m/s 765 mmHg 47%
12:00 +28°C° 0 mm 3 m/s 764 mmHg 44%
13:00 +28°C° 0 mm 3 m/s 763 mmHg 42%
14:00 +27°C° 0 mm 3 m/s 763 mmHg 45%
15:00 +27°C° 0 mm 4 m/s 763 mmHg 48%
16:00 +26°C° 0 mm 4 m/s 763 mmHg 52%
17:00 +24°C° 0 mm 3 m/s 763 mmHg 59%
18:00 +22°C° 0 mm 3 m/s 764 mmHg 65%
19:00 +20°C° 0 mm 3 m/s 764 mmHg 72%
20:00 +20°C° 0 mm 2 m/s 765 mmHg 75%
21:00 +19°C° 0 mm 2 m/s 765 mmHg 77%
22:00 +20°C° 0 mm 1 m/s 765 mmHg 80%
23:00 +19°C° 0 mm 1 m/s 765 mmHg 81%
Mostrar mais